Weather History for Monroe, WI

Change the Weather History Date:

Friday, August 16, 2013

  Actual Average Record
Temperature  
Mean Temperature 70 °F -  
Max Temperature 81 °F 84 °F 93 °F (2003)
Min Temperature 60 °F 56 °F 15 °F (1998)
Cooling Degree Days 6    
Growing Degree Days 20 (Base 50)    
Moisture  
Dew Point 51 °F    
Average Humidity 51    
Maximum Humidity 71    
Minimum Humidity 30    
Precipitation  
Precipitation 0.00 in - - ()
Sea Level Pressure  
Sea Level Pressure 30.18 in    
Wind  
Wind Speed 8 mph (NNE)    
Max Wind Speed 12 mph    
Max Gust Speed -    
Visibility 10 miles    
Events      
Averages and records for this station are not official NWS values.
T = Trace of Precipitation, MM = Missing Value Source: NWS Daily Summary

Daily Weather History Graph

Daily Weather History Graph

Search for Another Location

Airport:

Trip Planner

Search our weather history database for the weather conditions in past years. The results will help you decide how hot, cold, wet, or windy it might be!

Date:

Astronomy

Aug. 16, 2013 Rise Set
Actual Time 6:06 AM CDT 7:58 PM CDT
Civil Twilight 5:36 AM CDT 8:28 PM CDT
Nautical Twilight 4:59 AM CDT 9:05 PM CDT
Astronomical Twilight 4:18 AM CDT 9:44 PM CDT
Moon 4:19 PM CDT (8/16) 1:06 AM CDT (8/16)
Length of Visible Light 14h 52m
Length of Day
13h 51m
Waxing Gibbous, 75% of the Moon is Illuminated
Aug 16
Waxing Gibbous
Aug 20
Full
Aug 28
Last Quarter
Sep 5
New
Sep 12
First Quarter

Hourly Weather History & Observations

Time (CDT) Temp. Dew Point Humidity Pressure Visibility Wind Dir Wind Speed Gust Speed Precip Events Conditions
12:15 AM 63.9 °F 52.7 °F 67% 30.15 in 10.0 mi West 11.5 mph - N/A   Clear
12:55 AM 63.5 °F 51.8 °F 66% 30.15 in 10.0 mi West 11.5 mph - N/A   Scattered Clouds
1:15 AM 63.5 °F 51.1 °F 64% 30.15 in 10.0 mi West 10.4 mph - N/A   Scattered Clouds
1:35 AM 64.2 °F 50.5 °F 61% 30.15 in 10.0 mi West 10.4 mph - N/A   Clear
1:55 AM 63.9 °F 50.9 °F 63% 30.15 in 10.0 mi West 10.4 mph - N/A   Clear
2:15 AM 63.1 °F 51.4 °F 66% 30.15 in 10.0 mi WNW 10.4 mph - N/A   Scattered Clouds
2:35 AM 63.0 °F 51.8 °F 67% 30.14 in 10.0 mi WNW 9.2 mph - N/A   Scattered Clouds
2:55 AM 62.6 °F 51.6 °F 67% 30.14 in 10.0 mi WNW 9.2 mph - N/A   Clear
3:15 AM 62.6 °F 51.3 °F 66% 30.14 in 10.0 mi WNW 10.4 mph - N/A   Clear
3:35 AM 62.6 °F 51.1 °F 66% 30.14 in 10.0 mi WNW 9.2 mph - N/A   Clear
3:55 AM 61.9 °F 51.3 °F 68% 30.15 in 10.0 mi WNW 8.1 mph - N/A   Clear
4:15 AM 61.3 °F 51.3 °F 69% 30.15 in 10.0 mi WNW 8.1 mph - N/A   Clear
4:35 AM 61.0 °F 51.3 °F 70% 30.15 in 10.0 mi NW 6.9 mph - N/A   Clear
4:55 AM 60.8 °F 51.3 °F 71% 30.15 in 10.0 mi NW 6.9 mph - N/A   Clear
5:15 AM 60.8 °F 51.3 °F 71% 30.15 in 10.0 mi NW 8.1 mph - N/A   Clear
5:35 AM 61.2 °F 51.1 °F 69% 30.16 in 10.0 mi NNW 5.8 mph - N/A   Clear
5:55 AM 60.6 °F 51.1 °F 71% 30.16 in 10.0 mi NW 8.1 mph - N/A   Clear
6:15 AM 61.0 °F 50.9 °F 69% 30.16 in 10.0 mi NNW 6.9 mph - N/A   Clear
6:35 AM 61.0 °F 51.1 °F 70% 30.17 in 10.0 mi NNW 6.9 mph - N/A   Clear
6:55 AM 61.2 °F 51.1 °F 69% 30.17 in 10.0 mi NNW 4.6 mph - N/A   Clear
7:15 AM 61.9 °F 51.1 °F 68% 30.18 in 10.0 mi North 4.6 mph - N/A   Scattered Clouds
7:35 AM 61.7 °F 51.3 °F 69% 30.18 in 10.0 mi North 4.6 mph - N/A   Scattered Clouds
7:55 AM 62.6 °F 51.1 °F 66% 30.19 in 10.0 mi NNW 5.8 mph - N/A   Scattered Clouds
8:15 AM 63.7 °F 52.0 °F 66% 30.19 in 10.0 mi North 4.6 mph - N/A   Overcast
8:35 AM 65.1 °F 53.1 °F 65% 30.20 in 10.0 mi North 3.5 mph - N/A   Overcast
8:55 AM 68.9 °F 54.1 °F 59% 30.20 in 10.0 mi North 4.6 mph - N/A   Overcast
9:15 AM 71.8 °F 53.6 °F 53% 30.20 in 10.0 mi North 4.6 mph - N/A   Scattered Clouds
9:35 AM 72.1 °F 52.0 °F 49% 30.20 in 10.0 mi NNE 6.9 mph - N/A   Clear
9:55 AM 73.2 °F 52.9 °F 49% 30.20 in 10.0 mi NNE 5.8 mph - N/A   Scattered Clouds
10:15 AM 73.8 °F 53.1 °F 48% 30.20 in 10.0 mi North 6.9 mph - N/A   Clear
10:35 AM 74.1 °F 53.8 °F 49% 30.20 in 10.0 mi NNE 4.6 mph - N/A   Clear
10:55 AM 75.2 °F 53.1 °F 46% 30.20 in 10.0 mi NE 8.1 mph - N/A   Clear
11:15 AM 75.9 °F 52.7 °F 44% 30.20 in 10.0 mi North 4.6 mph - N/A   Clear
11:35 AM 76.8 °F 52.3 °F 42% 30.20 in 10.0 mi NE 8.1 mph - N/A   Clear
11:55 AM 77.7 °F 50.7 °F 39% 30.20 in 10.0 mi NNE 6.9 mph - N/A   Clear
12:15 PM 77.7 °F 50.5 °F 38% 30.20 in 10.0 mi Calm Calm - N/A   Scattered Clouds
12:35 PM 78.8 °F 49.8 °F 36% 30.19 in 10.0 mi North 5.8 mph - N/A   Scattered Clouds
12:55 PM 80.2 °F 49.3 °F 34% 30.19 in 10.0 mi North 5.8 mph - N/A   Mostly Cloudy
1:15 PM 78.6 °F 47.5 °F 33% 30.19 in 10.0 mi North 8.1 mph - N/A   Mostly Cloudy
1:35 PM 79.7 °F 46.9 °F 32% 30.19 in 10.0 mi East 5.8 mph - N/A   Scattered Clouds
1:55 PM 79.5 °F 46.4 °F 31% 30.19 in 10.0 mi Calm Calm - N/A   Scattered Clouds
2:15 PM 79.9 °F 46.9 °F 31% 30.18 in 10.0 mi NNE 4.6 mph - N/A   Scattered Clouds
2:35 PM 80.6 °F 46.2 °F 30% 30.18 in 10.0 mi North 3.5 mph - N/A   Clear
2:55 PM 79.0 °F 46.6 °F 32% 30.17 in 10.0 mi NNE 4.6 mph - N/A   Clear
3:15 PM 81.0 °F 46.8 °F 30% 30.17 in 10.0 mi ENE 3.5 mph - N/A   Clear
3:35 PM 80.1 °F 46.8 °F 31% 30.16 in 10.0 mi NE 9.2 mph - N/A   Scattered Clouds
3:55 PM 80.2 °F 47.5 °F 32% 30.16 in 10.0 mi NNE 4.6 mph - N/A   Clear
4:15 PM 77.4 °F 46.4 °F 33% 30.16 in 10.0 mi North 6.9 mph - N/A   Clear
4:35 PM 80.6 °F 48.2 °F 32% 30.16 in 10.0 mi North 9.2 mph - N/A   Mostly Cloudy
4:55 PM 79.7 °F 46.0 °F 30% 30.16 in 10.0 mi East 6.9 mph - N/A   Scattered Clouds
5:15 PM 80.6 °F 46.8 °F 30% 30.16 in 10.0 mi East 6.9 mph - N/A   Clear
5:35 PM 79.7 °F 47.8 °F 33% 30.17 in 10.0 mi ENE 4.6 mph - N/A   Clear
5:55 PM 79.0 °F 49.3 °F 35% 30.17 in 10.0 mi NE 10.4 mph - N/A   Clear
6:15 PM 78.4 °F 49.1 °F 36% 30.17 in 10.0 mi ENE 6.9 mph - N/A   Clear
6:35 PM 77.2 °F 50.9 °F 40% 30.16 in 10.0 mi NE 5.8 mph - N/A   Clear
6:55 PM 75.9 °F 51.8 °F 43% 30.17 in 10.0 mi NE 5.8 mph - N/A   Clear
7:15 PM 75.2 °F 51.8 °F 44% 30.17 in 10.0 mi NNE 3.5 mph - N/A   Clear
7:35 PM 74.5 °F 51.1 °F 44% 30.17 in 10.0 mi Calm Calm - N/A   Clear
7:55 PM 73.6 °F 50.9 °F 45% 30.17 in 10.0 mi NE 3.5 mph - N/A   Clear
8:15 PM 72.7 °F 51.1 °F 47% 30.18 in 10.0 mi ENE 4.6 mph - N/A   Clear
8:35 PM 71.8 °F 50.9 °F 48% 30.18 in 10.0 mi ENE 4.6 mph - N/A   Clear
8:55 PM 72.0 °F 51.6 °F 49% 30.19 in 10.0 mi Calm Calm - N/A   Clear
9:15 PM 72.0 °F 51.4 °F 48% 30.19 in 10.0 mi ENE 3.5 mph - N/A   Clear
9:35 PM 71.6 °F 51.8 °F 50% 30.20 in 10.0 mi East 4.6 mph - N/A   Clear
9:55 PM 69.6 °F 52.9 °F 55% 30.20 in 10.0 mi East 5.8 mph - N/A   Clear
10:15 PM 68.0 °F 53.1 °F 59% 30.20 in 10.0 mi East 4.6 mph - N/A   Clear
10:35 PM 68.0 °F 53.1 °F 59% 30.20 in 10.0 mi ESE 5.8 mph - N/A   Clear
10:55 PM 67.3 °F 52.9 °F 60% 30.20 in 10.0 mi ESE 4.6 mph - N/A   Clear
11:15 PM 67.1 °F 52.9 °F 60% 30.21 in 10.0 mi ESE 3.5 mph - N/A   Clear
11:35 PM 67.1 °F 52.7 °F 60% 30.21 in 10.0 mi ESE 4.6 mph - N/A   Clear
11:55 PM 66.2 °F 52.7 °F 62% 30.21 in 10.0 mi SE 4.6 mph - N/A   Clear